GFSNIL_sfc_thetae_000.txt.gz
Theta_e
314 313 313 315 320 320 323 323 325 326 326 326 327 327 328 326 325 325 323 322 323 323
314 313 313 313 315 319 322 325 324 323 322 324 326 327 326 326 324 326 325 325 324 324
312 313 312 312 313 316 317 318 317 316 317 317 319 322 323 322 324 323 322 323 321 321
312 312 312 312 312 314 315 317 316 317 317 318 318 320 319 318 321 319 319 320 320 318
311 311 311 312 311 313 314 316 317 318 317 316 316 317 318 317 317 316 317 316 316 313
309 309 310 311 311 312 313 315 316 316 314 313 313 313 313 313 313 313 313 315 315 313
308 308 309 310 311 312 313 313 314 314 313 312 311 311 310 309 308 309 309 311 312 312
308 308 309 310 309 310 311 312 313 312 310 310 310 308 308 308 308 308 307 307 308 309
307 307 308 308 308 308 308 309 311 311 310 310 308 300 302 305 305 305 306 306 304 306
308 308 308 307 306 306 306 307 308 309 309 309 307 298 298 300 302 302 302 302 301 302
309 307 308 307 305 304 304 305 305 306 307 308 306 297 296 297 299 298 297 298 298 301
309 307 307 306 304 303 302 302 302 304 304 306 306 297 295 297 297 297 297 297 297 297
310 308 307 307 305 305 303 304 303 303 303 302 306 296 295 298 299 298 298 301 301 297
311 308 308 307 306 306 305 304 303 303 303 303 303 302 296 296 305 305 303 303 303 302

GFSNIL_sfc_thetae_003.txt.gz
Theta_e
326 324 322 330 325 328 327 327 327 329 329 329 328 332 335 336 335 335 332 331 330 327
325 325 323 325 328 330 329 329 330 326 329 333 332 330 329 333 332 327 326 326 326 325
323 323 324 325 328 328 327 325 324 322 323 330 332 328 329 331 333 328 331 329 329 327
322 322 324 323 325 326 326 325 322 323 323 324 328 326 326 329 331 330 330 332 330 329
322 322 323 323 324 326 327 327 326 326 326 324 325 325 323 326 329 330 329 328 329 328
321 322 322 322 323 325 326 325 325 325 325 324 324 324 324 325 325 329 329 329 329 327
321 321 322 322 323 325 325 324 324 323 322 321 322 323 322 322 321 321 324 326 326 326
320 320 321 321 322 323 325 324 323 322 322 322 321 319 322 323 323 321 320 321 319 320
317 318 320 320 321 322 323 323 323 323 322 322 316 301 305 319 323 323 322 320 319 318
317 317 319 318 319 320 322 323 322 322 322 322 319 299 300 306 323 323 322 321 319 314
316 317 318 318 319 320 320 322 322 321 322 322 318 298 297 302 318 318 316 317 317 318
316 317 318 317 318 318 318 318 319 320 320 321 319 297 295 305 314 312 310 309 309 311
317 317 318 320 318 317 318 318 316 316 318 312 319 296 294 304 310 310 306 307 307 296
319 318 320 321 319 318 316 316 315 315 316 316 316 315 295 294 312 309 307 306 307 307

GFSNIL_sfc_thetae_006.txt.gz
Theta_e
331 328 328 333 330 330 331 328 330 330 334 334 335 335 339 338 338 337 333 329 332 330
329 330 330 337 337 332 331 331 333 332 331 334 335 334 338 340 338 336 330 329 329 328
327 329 331 334 334 332 332 328 330 333 335 334 336 337 337 338 336 333 333 331 331 326
325 327 329 329 331 331 329 331 329 325 326 328 333 334 337 335 330 329 329 330 328 325
325 327 328 329 330 333 332 331 331 330 326 326 326 330 331 334 332 332 330 331 330 326
325 326 327 328 329 329 329 331 332 329 328 327 325 327 329 330 331 332 333 333 333 331
325 325 327 328 329 328 327 327 329 330 329 330 329 327 331 335 335 334 334 334 334 334
325 325 326 326 328 329 327 326 325 325 326 327 327 325 328 329 330 330 330 331 331 332
320 323 324 326 328 328 327 326 326 325 325 325 321 303 310 323 327 327 327 326 324 321
319 320 323 323 325 327 329 330 327 326 326 326 322 301 304 313 331 329 329 329 328 323
317 318 322 323 325 328 330 330 329 328 327 327 318 299 301 309 329 329 329 329 329 327
318 318 320 321 325 327 328 329 328 327 327 326 323 298 298 308 324 324 323 321 321 322
319 319 319 322 325 327 327 326 323 324 326 316 324 297 296 306 316 319 315 316 315 299
322 320 323 325 325 325 324 322 323 321 324 323 321 317 295 296 315 314 311 310 311 308

GFSNIL_sfc_thetae_009.txt.gz
Theta_e
334 334 333 330 331 329 330 334 335 335 336 335 337 338 339 340 340 340 334 333 333 332
332 334 337 336 336 332 336 334 335 334 336 336 336 337 339 339 336 337 335 335 328 329
330 333 334 333 333 334 331 335 333 334 332 334 336 337 339 338 335 331 333 334 327 325
328 330 332 332 333 331 335 331 333 333 334 333 333 336 337 335 333 330 330 327 325 323
327 329 331 332 333 334 333 331 328 332 333 332 333 333 334 333 331 329 328 327 325 322
326 328 329 330 331 334 334 333 330 330 328 330 333 333 334 330 332 332 331 328 325 325
325 326 329 330 329 330 331 332 333 332 330 328 330 333 334 334 334 332 330 331 332 332
325 326 328 329 329 327 327 327 328 330 331 330 331 332 335 335 336 335 334 335 333 335
323 323 325 328 329 328 326 325 326 326 327 327 323 305 313 328 332 333 331 326 327 326
322 322 323 325 325 326 328 330 328 327 327 326 325 304 308 315 331 332 332 332 330 324
319 322 323 323 325 329 330 330 329 327 327 327 316 303 307 314 334 334 332 331 329 329
317 320 322 323 327 330 331 332 329 328 327 326 322 300 301 310 331 328 328 326 327 328
318 319 321 325 329 330 330 329 326 326 327 319 326 299 298 307 320 324 320 322 319 302
321 321 325 331 331 330 328 327 326 324 327 326 325 316 298 298 319 317 314 312 312 311

GFSNIL_sfc_thetae_012.txt.gz
Theta_e
335 335 330 330 331 330 330 332 333 334 331 334 335 335 335 332 333 334 332 331 331 329
336 334 334 334 335 331 333 333 332 333 333 334 334 333 333 331 331 332 331 331 328 327
336 334 335 336 335 332 332 331 328 329 331 334 333 333 334 332 333 331 328 327 326 324
334 334 333 333 332 331 330 331 331 329 330 332 333 333 333 330 330 330 328 326 323 322
334 334 334 332 334 332 327 331 331 332 331 332 331 333 330 329 330 327 326 325 323 322
333 332 333 330 334 334 329 330 331 331 331 331 331 330 331 330 329 328 326 324 322 321
331 332 333 332 334 332 334 329 329 331 330 331 332 332 331 331 330 329 326 326 324 323
331 333 333 331 331 332 332 331 329 329 332 332 333 333 331 331 329 327 326 326 326 325
325 327 332 333 331 329 328 329 328 327 327 326 320 307 316 329 331 330 329 328 326 323
323 323 328 329 330 330 331 332 327 326 325 324 318 305 308 317 329 326 325 325 324 324
321 321 324 327 329 331 332 332 329 326 325 323 312 305 306 317 330 330 328 328 325 320
320 322 322 325 329 332 333 332 331 328 326 322 318 304 304 319 329 329 327 324 323 328
318 323 324 328 330 332 334 332 328 328 328 319 322 300 300 307 326 325 323 321 312 305
321 324 327 331 331 332 332 330 331 327 330 327 323 313 300 299 318 321 317 316 314 307

GFSNIL_sfc_thetae_015.txt.gz
Theta_e
324 323 321 321 322 322 322 324 326 326 326 326 327 327 326 324 324 325 326 324 322 324
324 324 324 323 324 323 325 328 326 328 326 326 326 326 326 326 327 327 325 325 324 325
325 326 326 325 324 324 325 323 325 328 327 327 327 328 328 327 325 326 326 325 324 324
322 325 326 324 326 323 326 326 328 328 326 327 328 328 327 326 324 323 323 323 323 323
323 324 325 325 325 326 324 326 327 328 328 328 326 325 325 325 325 323 320 320 323 322
322 322 323 324 323 326 324 324 326 327 327 328 328 327 327 327 325 323 323 322 322 322
320 320 321 323 325 326 326 325 325 326 328 328 329 329 328 327 325 324 323 323 323 322
319 322 322 322 324 325 327 325 326 325 327 328 329 330 328 328 326 324 323 323 324 324
318 321 322 319 319 322 323 322 322 321 319 320 324 309 315 324 325 325 324 323 323 322
318 321 321 320 319 319 320 318 318 318 317 312 311 308 311 316 328 326 324 323 322 324
317 319 320 319 319 319 319 317 317 317 315 311 307 303 307 312 322 320 321 321 321 321
316 316 317 319 317 319 319 318 316 315 314 311 307 304 308 319 320 319 319 318 316 318
316 316 315 319 319 320 320 320 319 316 313 311 308 300 302 315 320 314 312 308 311 309
316 316 316 320 321 321 321 319 317 318 314 313 309 305 299 302 316 314 311 308 305 305

GFSNIL_sfc_thetae_018.txt.gz
Theta_e
321 319 319 319 320 319 320 322 323 323 323 323 323 323 321 319 319 321 320 320 319 322
321 321 322 320 320 320 323 325 325 324 323 324 324 323 321 322 323 325 322 321 321 322
322 323 323 324 321 321 323 322 323 323 323 324 324 324 325 325 325 324 324 325 323 323
321 323 323 323 321 324 323 324 324 324 324 324 323 324 323 325 323 323 323 324 323 322
321 323 322 322 321 321 322 325 325 325 325 325 325 324 323 323 322 322 321 322 322 323
320 322 321 320 322 322 323 326 325 326 325 324 323 323 323 323 322 321 321 322 321 323
317 319 320 321 324 322 324 325 325 326 327 327 326 326 325 324 322 320 321 322 322 323
317 318 320 322 323 323 323 324 325 327 328 328 328 327 326 325 323 321 322 323 324 324
318 320 318 319 322 322 321 321 322 322 325 326 327 310 313 322 324 323 322 322 323 323
317 321 317 317 318 317 316 316 315 317 318 319 319 307 309 313 325 324 323 323 322 324
316 319 317 317 317 315 314 314 314 313 312 314 314 304 306 311 325 324 323 323 322 324
317 317 317 315 315 315 314 312 313 312 312 311 309 302 304 315 320 320 320 321 321 320
316 315 316 315 316 315 314 313 313 312 311 307 305 300 304 313 317 313 311 313 315 308
314 313 316 315 316 316 316 314 312 311 310 309 306 301 301 306 313 311 309 311 311 306

GFSNIL_sfc_thetae_021.txt.gz
Theta_e
318 317 316 319 318 318 318 318 319 320 320 320 321 320 317 316 316 318 318 319 320 319
319 318 321 320 318 319 320 323 321 320 320 321 321 319 318 317 318 318 318 317 318 319
320 321 321 320 320 319 319 320 320 320 320 321 320 320 320 323 324 323 324 320 319 321
320 320 320 319 319 320 320 321 321 321 320 320 321 322 324 322 323 322 323 323 322 321
320 320 318 318 320 320 320 322 323 323 322 322 321 323 323 321 319 320 322 323 322 322
319 319 317 319 320 321 321 321 323 323 322 322 321 321 322 323 322 322 322 323 323 323
316 317 319 318 320 321 322 322 322 323 323 324 323 323 322 322 321 321 322 322 324 324
315 318 320 321 320 321 322 323 325 326 326 326 325 324 322 321 321 320 321 322 323 324
316 318 319 319 320 320 320 321 324 326 326 325 325 307 312 319 321 322 321 321 322 322
317 318 316 320 318 316 314 316 318 321 323 321 320 305 307 312 323 322 322 322 322 324
318 316 315 316 315 312 312 312 313 315 319 320 315 303 304 310 324 323 323 322 322 323
318 315 314 314 312 310 311 311 311 312 315 316 313 300 303 317 323 322 321 322 322 323
317 316 315 314 312 311 310 311 312 312 313 309 312 300 302 314 319 317 318 319 318 310
314 315 315 314 313 311 311 310 310 309 308 308 309 306 301 305 318 316 315 315 313 313

GFSNIL_sfc_thetae_024.txt.gz
Theta_e
319 319 319 322 320 320 320 321 322 322 322 322 322 321 321 321 321 323 323 323 323 323
321 321 321 321 323 322 323 324 322 323 323 323 322 321 321 320 321 322 322 322 323 323
322 323 322 323 321 321 322 323 323 322 323 323 322 321 322 323 323 323 322 322 323 324
322 322 321 321 322 322 323 323 323 322 323 322 322 324 324 324 325 324 323 323 323 323
322 322 319 321 322 323 322 324 323 323 323 322 321 324 323 322 322 322 322 323 324 323
321 320 319 321 322 323 323 324 324 324 323 322 322 323 323 323 322 323 324 324 324 324
319 320 320 321 322 323 324 323 323 324 324 322 323 323 323 323 323 323 323 324 325 325
318 320 322 322 322 323 324 325 324 325 325 324 323 323 322 322 322 322 322 324 324 326
318 320 321 321 321 322 323 325 326 325 325 324 324 306 310 319 322 322 322 322 322 321
319 319 320 321 319 318 318 321 323 323 324 322 318 304 305 311 323 322 322 322 323 323
319 316 319 318 316 315 315 318 320 321 322 321 314 302 303 309 324 324 323 324 324 322
318 316 317 316 314 314 315 315 316 319 320 320 312 301 303 316 323 322 322 323 323 324
318 316 316 315 313 314 315 315 316 317 319 312 316 299 302 316 323 321 322 322 319 310
317 317 317 315 314 313 314 314 314 313 314 317 316 310 300 306 321 321 320 320 319 319

GFSNIL_sfc_thetae_027.txt.gz
Theta_e
330 332 332 332 332 332 331 331 334 332 332 332 331 331 332 331 331 332 333 330 325 329
333 332 333 332 333 334 333 332 333 333 331 332 332 331 332 330 331 332 333 333 329 328
333 333 331 334 331 333 333 333 332 333 333 332 332 331 332 331 332 332 332 331 330 331
332 331 330 333 332 334 334 333 332 332 332 332 331 332 332 332 331 330 327 328 328 327
332 330 330 332 332 334 333 332 332 331 331 328 327 329 329 327 328 327 326 327 327 327
330 329 330 332 332 333 333 332 332 331 326 325 327 327 327 326 325 326 327 328 327 328
330 330 330 332 332 333 333 331 330 329 325 325 326 326 326 326 326 328 328 329 330 329
329 331 331 331 332 333 332 332 331 329 325 325 325 325 325 325 326 327 327 328 329 330
329 330 330 331 332 333 332 328 331 329 326 324 324 306 311 321 326 327 327 326 326 325
328 329 329 330 330 331 330 331 326 330 327 322 322 305 307 312 328 328 326 324 325 323
326 328 329 329 327 327 328 328 327 324 327 321 317 302 303 310 328 328 327 325 325 324
326 327 327 326 325 327 329 330 328 328 327 319 312 300 301 317 325 326 325 327 326 324
327 327 327 326 325 327 329 329 329 328 327 314 315 300 303 318 324 322 322 324 321 310
327 326 329 326 326 328 328 328 328 327 328 327 319 311 301 308 326 326 326 325 325 325

GFSNIL_sfc_thetae_030.txt.gz
Theta_e
336 335 335 336 337 336 336 333 336 336 336 335 335 335 336 338 336 337 337 335 335 334
336 336 335 336 339 340 336 334 335 336 335 335 335 335 336 338 336 337 336 333 327 338
336 336 337 339 336 335 337 334 335 335 335 335 335 335 336 336 336 335 334 334 333 335
335 336 337 338 336 336 337 335 333 334 334 334 335 335 336 335 334 333 334 335 334 332
335 335 337 335 334 335 335 335 333 333 333 332 333 334 334 331 332 331 332 329 329 330
334 335 334 335 335 335 335 333 333 333 332 332 332 332 333 331 331 330 329 330 331 330
333 334 335 335 334 335 335 333 332 332 331 331 330 330 329 330 330 329 330 332 333 333
333 334 334 335 334 335 334 333 332 330 330 329 329 328 329 329 329 331 332 333 332 334
332 332 334 335 335 334 332 332 332 329 328 328 328 308 312 324 328 328 329 330 330 332
332 331 333 334 334 333 332 328 333 331 330 327 328 306 308 312 330 329 331 330 329 328
330 330 332 334 334 335 332 329 326 326 324 324 326 304 305 310 332 330 330 329 328 329
330 329 331 330 332 335 336 334 332 330 323 318 323 302 302 316 330 327 326 330 327 328
329 330 329 330 333 336 336 334 334 329 325 313 318 299 301 316 329 326 325 330 325 309
330 330 331 331 335 336 335 333 331 331 330 323 318 311 302 309 326 324 325 326 327 322

GFSNIL_sfc_thetae_033.txt.gz
Theta_e
337 334 335 337 339 338 336 339 337 336 336 336 335 334 337 341 339 338 339 335 336 337
336 337 336 337 340 339 338 335 335 335 336 335 335 336 338 337 335 336 336 336 335 337
339 336 336 339 337 337 338 334 334 335 336 335 335 335 338 338 337 335 331 335 334 334
337 335 335 337 336 337 337 334 333 334 334 333 334 335 337 336 334 332 334 332 333 332
338 333 336 334 336 336 335 334 332 334 331 331 332 335 334 332 333 332 331 333 332 330
334 336 335 335 335 336 335 333 332 333 331 330 331 332 332 332 331 332 329 330 332 329
335 334 335 335 335 335 335 333 331 333 331 332 332 331 331 332 331 330 331 333 334 330
335 336 335 334 334 335 335 332 331 331 332 331 331 329 330 331 330 331 332 334 333 333
333 332 334 334 335 335 334 333 331 329 329 330 330 310 314 324 331 332 332 332 333 331
332 331 333 333 333 332 333 333 332 331 329 331 328 308 309 313 332 331 333 332 331 330
331 330 332 333 334 333 332 330 327 327 329 331 325 306 306 312 332 333 333 332 331 328
330 331 331 331 334 336 334 334 332 329 324 327 325 304 302 313 332 332 331 331 330 326
330 331 331 332 335 338 337 334 333 329 326 314 328 301 300 312 329 330 327 325 322 306
330 331 333 333 337 337 335 334 332 328 324 324 326 322 301 306 331 329 329 326 325 320

GFSNIL_sfc_thetae_036.txt.gz
Theta_e
342 338 339 341 339 337 336 337 337 337 336 336 335 334 334 334 332 332 332 328 331 329
340 341 340 340 341 338 339 337 337 336 334 335 334 334 335 332 331 331 332 329 329 332
339 336 335 340 338 339 338 334 335 335 335 334 334 334 333 332 333 331 330 331 328 328
337 334 337 339 338 337 338 334 334 335 335 334 333 334 333 331 332 330 330 328 327 326
333 335 337 337 337 338 337 335 332 332 330 333 333 333 332 332 331 330 328 327 326 326
335 336 336 335 337 337 336 333 330 330 330 330 332 332 333 331 331 329 329 328 327 326
336 336 335 336 337 337 336 333 330 329 331 329 330 331 331 331 330 329 329 330 328 327
337 335 336 334 334 335 336 333 329 331 331 332 331 328 330 330 329 330 329 329 329 327
334 332 335 334 334 335 334 332 330 330 329 331 327 309 314 323 328 329 329 327 327 326
332 332 333 333 333 332 332 332 329 329 330 327 324 309 309 312 332 330 330 329 329 327
331 331 333 333 333 333 334 330 328 328 331 326 321 306 305 307 332 330 329 330 329 328
331 331 332 332 334 332 332 331 328 327 325 325 323 302 303 312 331 328 328 328 326 325
332 333 330 334 333 335 334 331 327 324 325 318 324 302 301 310 329 326 324 323 319 307
332 334 335 335 335 335 333 331 328 325 324 329 325 317 300 304 330 326 323 322 321 315

GFSNIL_sfc_thetae_039.txt.gz
Theta_e
327 325 326 326 326 326 325 325 326 327 326 327 326 327 325 324 324 325 325 322 322 322
327 328 326 327 329 326 327 329 327 327 326 326 326 327 325 324 324 324 325 324 323 323
326 328 328 327 327 327 327 326 327 326 326 326 328 327 325 325 326 324 323 324 322 322
327 328 327 327 328 326 325 326 326 327 326 326 325 327 326 324 324 323 323 323 324 321
328 327 327 327 327 326 326 326 327 327 327 327 327 326 325 325 326 325 323 324 324 321
326 326 325 327 328 328 327 326 327 328 328 327 327 326 326 327 326 325 324 325 325 323
326 326 325 326 327 326 327 328 326 327 328 329 328 328 328 326 324 325 327 326 326 326
326 326 327 327 327 327 326 327 328 327 325 324 324 325 325 324 324 325 326 327 327 325
327 328 325 325 326 326 325 325 324 323 324 321 322 307 311 318 323 325 323 323 323 321
327 327 326 328 327 325 323 322 322 321 321 318 315 306 307 310 326 325 324 323 322 323
328 327 326 326 325 323 323 322 320 321 321 316 313 304 303 307 325 324 324 325 324 324
328 326 326 326 324 324 323 323 322 323 317 315 312 301 301 317 327 325 322 323 325 323
328 327 326 325 324 325 324 323 323 322 322 313 313 299 300 319 324 320 318 319 318 309
327 327 327 326 325 324 324 322 320 319 319 319 315 310 301 308 321 319 318 319 317 314

GFSNIL_sfc_thetae_042.txt.gz
Theta_e
323 323 324 323 323 323 323 323 323 324 324 324 325 324 323 321 321 321 322 322 321 320
325 324 323 324 325 324 323 325 325 324 324 324 325 325 322 322 322 323 321 322 320 322
323 325 325 326 325 324 325 325 324 324 323 323 324 324 323 321 324 322 321 322 321 320
323 326 324 325 325 323 323 324 324 325 324 324 325 324 322 322 323 321 322 321 321 320
325 324 324 325 325 323 323 323 325 326 325 325 325 324 323 324 324 323 324 322 322 320
324 324 324 324 325 324 324 324 324 324 324 325 325 324 324 325 324 324 323 323 323 322
323 323 323 324 324 325 325 326 325 325 327 326 325 326 326 324 322 323 324 325 325 324
323 324 324 324 325 325 324 327 327 327 324 323 324 324 323 323 323 323 324 325 325 325
324 325 323 323 324 323 323 323 322 323 320 319 320 306 310 319 322 322 322 323 322 323
325 325 324 325 324 321 320 320 319 318 318 315 313 302 304 310 322 320 320 320 322 323
326 324 325 324 322 320 318 318 318 316 315 314 312 301 303 309 321 321 324 321 324 321
325 324 324 322 321 320 320 318 318 317 314 313 313 301 306 318 324 323 322 324 324 322
326 325 324 322 321 320 320 323 322 319 316 310 316 299 304 317 322 319 319 319 318 308
325 324 324 322 321 321 319 319 320 318 317 313 312 310 302 307 317 318 318 318 317 314

GFSNIL_sfc_thetae_045.txt.gz
Theta_e
322 322 321 321 321 321 321 321 322 323 322 322 323 323 321 320 319 318 318 318 318 317
322 322 321 321 321 322 321 322 322 322 322 322 322 322 320 319 319 320 319 320 319 318
322 322 323 323 322 322 322 323 322 321 322 321 322 322 320 319 320 320 320 321 320 318
322 323 323 323 323 323 322 322 322 323 322 322 322 321 320 319 321 320 319 319 320 319
321 321 321 323 323 321 321 322 323 323 323 323 323 322 320 321 321 320 320 320 319 321
320 321 322 322 322 321 321 322 323 324 323 323 323 322 322 323 322 322 323 322 321 321
320 321 322 322 322 322 322 322 322 322 324 324 324 324 324 323 321 323 323 324 323 323
321 322 322 322 322 323 323 324 325 326 325 322 323 323 323 321 321 322 323 324 325 324
322 322 321 322 322 321 321 324 323 323 320 318 318 305 311 318 321 320 322 321 322 322
323 322 321 322 321 319 319 319 318 317 317 315 314 301 303 309 321 320 322 320 323 323
324 322 322 321 319 317 316 318 315 315 314 313 312 301 303 307 320 319 320 322 322 320
324 322 322 320 318 316 316 316 314 314 313 313 312 301 302 315 323 323 323 323 322 321
323 323 321 319 318 317 318 321 318 315 312 309 313 300 303 316 322 320 319 320 318 308
323 322 321 319 318 318 321 322 318 315 312 313 314 311 301 306 317 320 319 318 317 313

GFSNIL_sfc_thetae_048.txt.gz
Theta_e
323 323 322 323 323 323 324 324 326 326 326 325 326 325 324 324 323 323 322 322 321 322
323 323 323 323 324 324 324 324 325 325 325 325 326 325 324 323 323 323 323 323 323 323
323 324 323 324 324 324 324 325 324 323 324 324 325 325 324 323 323 323 324 324 324 322
323 324 324 324 324 324 325 324 324 324 324 324 324 324 323 323 324 324 323 324 323 322
323 323 322 323 324 324 324 324 325 325 325 325 325 324 324 323 324 323 322 321 321 322
321 321 323 324 323 323 323 324 325 326 325 324 325 325 325 325 323 324 322 322 321 323
321 322 323 324 323 324 324 324 325 325 326 326 326 326 326 325 324 325 323 324 323 323
322 323 323 324 324 325 324 325 325 325 327 326 325 323 325 324 323 325 324 324 324 323
322 323 323 323 324 324 324 325 326 324 323 322 320 302 308 320 323 324 323 323 322 322
323 323 323 323 322 321 321 322 322 322 321 320 318 301 302 309 324 323 323 323 322 323
324 322 323 322 321 319 319 319 318 318 318 318 315 301 302 306 323 323 324 324 323 321
324 322 322 321 319 319 319 319 317 318 317 318 318 301 300 314 325 324 323 323 322 320
325 324 322 321 319 319 321 320 318 316 316 309 318 300 301 316 323 321 320 319 317 306
325 324 323 321 321 320 322 320 317 316 316 318 315 309 302 307 322 320 319 318 316 311

GFSNIL_sfc_thetae_051.txt.gz
Theta_e
340 338 338 338 337 337 337 339 341 340 340 338 337 335 336 334 333 334 333 333 332 330
338 338 336 338 339 338 339 337 338 338 338 336 335 336 336 333 333 334 333 333 333 331
337 337 337 338 337 338 337 337 336 336 336 335 335 335 335 333 334 332 332 331 332 332
335 336 337 337 337 337 337 335 334 333 333 333 334 335 334 334 332 330 333 333 332 332
335 336 336 336 336 336 335 334 333 333 332 332 333 334 333 332 331 330 330 329 330 325
334 335 335 335 335 335 334 333 333 333 332 332 333 333 333 332 331 329 326 325 321 324
333 334 335 335 334 334 334 333 333 333 332 332 332 332 333 332 331 329 327 325 326 325
333 334 334 334 332 333 334 334 333 333 333 334 333 331 332 331 331 331 326 325 325 325
332 333 334 334 333 333 333 334 333 332 333 333 329 303 308 323 331 330 327 324 325 324
332 331 332 333 332 332 334 335 332 330 332 332 330 302 303 309 331 330 330 325 324 322
331 330 331 332 332 332 333 333 333 332 332 331 323 301 302 307 332 329 328 326 324 321
330 330 331 331 331 331 331 330 330 330 329 330 327 301 301 316 328 326 326 326 324 322
331 331 331 332 331 331 332 330 327 328 328 313 329 301 301 316 326 323 321 320 320 306
332 332 333 332 332 331 329 326 326 327 328 326 324 314 302 307 326 323 322 320 319 316

GFSNIL_sfc_thetae_054.txt.gz
Theta_e
352 348 347 347 344 342 339 341 348 347 346 345 344 342 341 337 336 338 336 335 336 332
348 348 345 347 347 341 345 344 346 346 344 343 341 340 339 335 336 336 335 335 335 335
347 346 346 345 343 344 344 342 343 342 341 340 339 338 338 336 337 336 334 334 334 335
342 343 344 343 343 343 343 342 340 339 338 336 335 336 337 337 335 334 334 335 334 333
342 342 342 341 342 342 340 339 337 336 334 333 334 337 336 335 334 333 332 332 333 332
340 340 340 340 340 340 338 336 336 335 333 333 334 335 336 334 333 332 331 327 327 329
338 337 338 339 339 337 337 336 335 335 333 333 335 335 334 334 334 332 329 326 327 327
336 338 339 338 337 337 336 334 334 333 334 335 335 333 335 334 333 334 328 327 326 327
335 336 337 337 336 336 335 336 335 334 334 334 332 305 311 325 335 333 330 325 326 326
335 335 336 336 335 334 336 337 335 335 334 334 333 304 304 310 335 332 331 327 325 323
333 333 334 334 334 336 337 336 336 335 334 335 326 303 303 307 333 334 331 327 325 323
333 333 333 334 334 336 335 337 335 335 334 334 331 302 302 311 333 332 329 326 324 324
333 334 333 335 336 336 337 335 334 334 334 318 331 302 301 315 330 326 325 322 319 306
334 335 336 336 337 336 334 334 333 331 331 333 329 322 301 305 329 326 324 323 322 319

GFSNIL_sfc_thetae_057.txt.gz
Theta_e
356 350 352 355 350 347 346 347 353 350 347 345 345 344 345 342 338 342 338 338 340 336
354 358 352 358 357 346 352 346 347 346 345 344 343 342 343 337 338 339 339 337 337 334
351 350 350 350 351 350 350 345 343 343 344 342 340 339 340 338 338 338 337 334 335 335
348 348 347 346 344 345 345 343 340 340 340 339 337 338 338 337 337 333 336 336 334 334
345 344 344 343 343 344 342 341 339 339 337 335 334 336 337 335 335 333 333 333 333 332
343 343 342 342 342 340 339 338 337 336 334 333 333 336 337 335 334 334 334 334 330 330
341 341 340 340 339 338 338 336 335 334 333 332 333 335 334 335 334 334 332 331 329 327
339 338 337 337 338 338 337 336 334 333 332 333 332 330 336 335 335 334 331 329 328 328
335 336 337 338 338 337 335 335 333 334 335 336 328 306 313 325 336 334 331 327 326 327
334 335 335 336 336 335 337 339 336 336 335 335 334 306 308 310 336 334 333 327 325 324
333 334 335 334 334 336 338 337 338 336 335 336 328 304 303 307 336 335 334 327 326 324
333 333 333 333 335 340 337 338 336 335 335 335 331 304 304 316 334 332 329 327 326 326
333 334 333 335 336 337 337 337 336 333 335 322 332 303 302 315 333 328 325 324 320 308
334 335 337 338 338 337 335 335 336 333 334 333 329 324 302 306 332 328 324 324 324 320

GFSNIL_sfc_thetae_060.txt.gz
Theta_e
354 351 356 351 350 346 345 345 348 349 350 348 347 345 344 342 339 340 336 335 334 332
352 354 352 353 357 349 349 349 350 349 347 346 344 343 342 340 338 338 337 335 334 333
353 355 355 354 351 351 348 347 347 346 345 341 342 341 340 339 338 336 336 334 333 332
353 351 350 350 348 348 348 345 343 343 341 337 337 338 338 337 335 335 333 333 332 332
349 348 347 346 347 346 345 343 341 341 337 336 337 338 336 335 335 332 331 332 332 329
345 344 345 344 344 343 343 341 339 339 334 335 335 334 336 335 332 334 332 332 330 330
342 343 343 342 342 342 340 339 339 338 335 333 335 334 334 333 333 333 330 330 328 326
342 342 341 339 339 339 340 338 336 335 333 335 332 331 333 332 333 332 329 329 328 326
338 337 337 338 339 340 338 338 334 334 332 329 326 307 312 329 334 333 329 326 325 324
335 335 336 338 337 337 339 336 335 337 336 332 325 304 307 312 334 331 331 327 323 323
334 334 335 335 336 337 337 337 338 336 335 334 319 304 305 309 335 333 331 325 325 323
335 334 334 333 335 338 336 336 335 335 333 331 323 305 304 313 333 330 326 326 324 325
334 334 331 333 337 337 337 336 337 334 334 322 324 304 304 314 331 326 323 323 319 307
335 333 336 336 338 336 335 335 334 332 331 333 328 316 304 304 330 324 322 323 321 321

GFSNIL_sfc_thetae_063.txt.gz
Theta_e
336 340 339 343 342 341 340 339 340 342 342 341 342 337 335 333 331 331 329 327 326 323
339 342 343 342 343 341 339 340 341 341 341 341 337 335 333 331 330 330 327 326 326 324
341 344 346 346 342 341 341 342 341 341 338 335 335 333 331 329 330 328 327 327 326 325
342 345 345 343 342 342 342 342 341 338 334 333 333 331 329 327 329 327 326 327 326 325
342 342 340 338 337 339 339 339 336 335 332 334 334 333 328 328 328 327 325 325 325 325
342 340 337 334 334 335 333 332 333 331 330 332 333 328 328 329 327 327 326 325 324 323
338 338 335 334 332 333 331 330 330 329 331 331 330 328 329 329 328 327 325 325 323 321
337 335 334 332 331 330 330 330 329 328 327 329 330 330 331 330 327 323 322 322 321 321
335 333 331 330 329 329 328 328 326 326 327 324 324 309 315 327 325 324 322 320 319 321
332 331 329 330 330 328 327 329 328 326 324 321 315 304 308 317 326 324 322 320 320 322
331 330 329 329 327 330 325 328 328 328 323 318 313 303 305 309 325 324 324 322 322 321
331 329 327 327 328 327 325 324 324 326 322 317 312 304 305 314 324 323 323 323 322 322
331 329 326 326 327 326 326 326 327 326 324 315 313 304 304 316 324 320 320 318 318 306
331 330 330 330 328 326 326 325 324 324 323 320 314 309 303 305 321 319 319 317 318 312

GFSNIL_sfc_thetae_066.txt.gz
Theta_e
330 329 331 335 340 340 340 339 339 338 338 339 340 336 335 334 332 328 326 325 324 322
332 330 332 337 340 340 339 339 339 338 337 339 337 336 332 330 329 328 326 325 324 322
332 336 336 339 339 338 338 340 338 337 338 336 337 334 330 327 327 326 325 325 323 322
336 338 341 341 340 338 339 338 338 339 336 334 333 330 327 326 327 327 324 324 324 323
338 340 340 341 340 340 339 339 340 338 334 333 333 329 326 326 327 326 324 324 324 323
338 339 337 337 339 340 339 337 337 334 331 330 330 329 328 328 326 325 324 323 322 322
335 335 335 335 335 336 335 334 332 330 329 330 329 329 327 326 325 324 323 323 322 321
334 335 334 333 330 331 330 331 329 327 328 329 328 326 325 326 326 323 321 320 319 319
334 334 333 332 329 328 327 326 325 325 325 325 325 313 314 325 325 323 320 317 317 319
334 331 330 329 327 325 322 322 322 322 324 323 319 305 308 314 324 321 319 317 317 321
331 329 328 327 325 323 323 322 323 322 320 319 311 301 306 309 322 320 319 321 320 318
330 327 327 325 324 322 324 327 325 323 318 315 310 301 303 315 321 323 322 320 322 322
329 327 325 324 324 325 323 323 324 320 317 311 312 301 304 315 323 322 319 317 316 304
328 325 324 324 324 322 323 324 323 321 317 314 313 308 301 306 319 318 316 316 317 311

GFSNIL_sfc_thetae_069.txt.gz
Theta_e
329 326 327 330 332 334 336 337 338 338 338 337 337 336 337 332 330 328 326 324 323 322
326 324 327 330 334 335 336 338 338 338 338 337 337 336 335 330 328 326 325 324 323 320
327 327 327 333 335 336 335 337 337 337 336 336 335 336 334 331 327 326 323 323 322 320
327 329 331 334 336 336 336 337 338 337 336 335 334 333 331 329 326 325 323 322 322 322
329 332 333 335 336 336 336 338 338 337 335 335 335 332 329 327 326 325 323 323 322 321
332 334 335 336 335 336 336 337 338 336 334 334 332 328 325 326 325 324 323 323 322 321
335 336 336 336 336 337 337 337 335 335 334 332 330 328 326 326 324 324 323 322 321 320
335 334 335 336 336 335 336 335 335 332 330 328 327 328 326 324 323 322 321 320 320 319
333 333 332 332 332 332 332 331 330 328 327 324 325 309 312 321 322 323 323 317 316 316
333 332 331 331 331 329 327 326 324 323 323 322 320 305 308 313 324 321 318 316 315 317
331 330 330 328 326 322 323 323 321 320 321 318 313 302 304 307 320 318 317 315 318 319
331 328 327 325 323 321 321 320 319 319 316 314 312 300 301 314 319 318 317 317 318 319
330 328 325 324 322 320 323 321 321 319 318 310 311 300 301 315 324 321 320 318 315 303
328 326 325 323 323 321 321 320 318 315 313 312 311 308 301 304 322 320 318 316 313 313

GFSNIL_sfc_thetae_072.txt.gz
Theta_e
334 335 331 330 330 331 334 337 340 340 340 340 339 338 338 336 336 332 332 329 329 328
329 332 331 329 332 333 336 337 339 340 339 339 339 339 338 336 333 333 330 330 329 328
327 330 328 329 332 333 336 338 338 339 339 338 339 338 337 335 332 331 329 329 327 326
325 327 327 329 332 335 336 338 338 339 338 338 336 336 335 334 331 329 328 328 327 326
325 327 328 330 333 335 336 339 339 339 338 336 335 335 334 331 331 328 327 326 327 326
326 328 329 331 334 336 337 338 339 338 337 335 335 334 333 331 329 329 328 327 326 326
327 330 331 333 334 336 337 337 338 337 337 336 335 333 329 329 328 328 328 327 327 326
330 332 334 334 335 336 337 338 337 336 335 334 333 330 328 328 329 327 326 325 325 325
333 334 335 336 336 336 336 336 335 334 333 331 331 310 313 323 327 326 325 323 323 323
334 333 334 335 335 334 334 333 332 331 331 328 326 306 308 312 327 326 326 323 321 321
333 332 333 334 333 333 330 330 330 329 328 325 318 304 303 308 326 324 323 322 321 322
332 331 332 331 328 328 327 327 326 325 322 321 315 299 300 316 324 322 321 321 321 322
330 330 329 327 326 326 327 324 323 320 321 312 313 298 301 315 323 321 320 320 318 305
329 327 326 325 325 324 323 321 319 317 317 317 313 308 301 305 325 322 321 320 319 317

GFSNIL_sfc_thetae_075.txt.gz
Theta_e
329 328 336 343 341 340 342 346 352 350 349 349 347 347 347 345 345 346 344 340 343 340
323 330 333 341 340 338 346 346 348 349 348 348 347 348 349 346 347 346 344 342 343 340
324 325 330 338 339 338 344 347 346 347 348 348 349 350 350 348 348 345 339 338 341 340
326 328 333 337 340 341 346 347 345 347 348 348 349 350 349 348 346 342 337 341 340 339
327 329 334 337 340 343 345 345 345 347 347 348 349 349 347 346 343 336 335 336 339 337
327 328 334 338 341 343 343 344 345 346 347 347 347 347 347 345 342 336 335 338 338 336
330 330 335 338 341 343 344 344 345 346 346 347 346 345 345 342 337 336 337 338 338 336
331 333 335 337 340 344 344 344 345 345 347 347 346 342 342 340 337 338 337 338 337 338
328 330 335 339 341 343 343 344 345 345 345 345 342 312 316 330 338 337 336 335 335 335
328 331 336 338 340 341 341 343 344 345 344 344 342 308 310 315 338 337 337 336 334 332
330 333 337 338 337 338 338 341 341 342 344 343 337 308 306 311 338 337 337 336 335 334
334 335 334 334 334 335 337 338 340 340 335 333 326 303 302 319 336 335 334 333 333 332
335 334 334 334 334 336 338 336 332 332 334 323 326 298 303 320 333 332 330 331 328 307
338 337 334 333 335 335 331 328 329 328 332 330 325 312 300 305 334 332 330 328 327 326

GFSNIL_sfc_thetae_078.txt.gz
Theta_e
329 327 328 336 335 334 339 345 358 361 358 359 357 356 356 353 351 350 348 350 350 343
327 330 329 338 345 338 347 344 351 355 357 357 356 354 357 350 351 351 352 352 351 346
326 328 329 333 338 342 348 348 347 354 356 355 354 354 354 353 354 353 351 350 349 349
326 328 329 332 333 339 346 345 344 350 353 353 351 353 355 357 353 351 350 349 346 347
326 329 333 333 337 340 341 343 341 348 349 348 350 354 354 352 350 349 348 346 346 344
322 326 332 336 338 339 343 342 343 346 347 347 349 352 353 351 350 349 347 346 345 344
322 322 330 337 337 339 338 339 343 346 347 347 349 351 351 351 350 348 347 346 346 342
321 322 329 336 337 339 340 340 344 346 347 348 349 348 350 350 348 347 345 346 342 342
320 322 327 338 337 339 340 343 345 346 346 348 346 316 320 339 347 345 342 340 339 340
319 322 327 336 336 341 346 352 352 351 349 349 350 312 312 319 346 342 340 339 339 337
319 322 329 335 338 345 351 352 352 351 351 350 340 309 310 314 342 341 341 340 340 339
320 322 332 334 342 349 351 351 351 350 350 347 332 306 307 322 340 339 338 339 339 338
321 326 334 341 344 347 349 348 345 346 347 331 335 301 306 321 334 335 335 338 338 308
331 335 337 339 339 340 340 342 343 342 343 343 334 317 304 304 334 333 333 333 333 332

GFSNIL_sfc_thetae_081.txt.gz
Theta_e
332 327 329 334 332 333 334 339 344 346 358 359 358 362 364 360 358 359 355 358 354 349
331 332 331 336 338 335 337 337 347 353 362 361 360 363 365 356 358 359 358 353 354 351
326 330 333 334 336 336 337 343 345 350 353 361 362 363 364 358 360 356 352 352 356 355
323 326 331 333 335 337 339 340 339 347 351 356 360 362 361 359 355 352 355 356 354 352
322 324 330 332 336 338 339 339 342 346 342 352 356 359 358 353 351 353 354 353 351 346
323 324 328 330 333 339 339 340 342 341 343 348 354 356 356 353 354 355 353 350 348 348
322 324 326 328 330 336 340 338 340 342 341 346 350 351 353 353 355 354 351 353 351 347
319 322 324 326 327 333 338 341 340 342 344 348 350 349 353 354 354 354 352 351 347 351
316 316 322 326 328 330 336 341 340 339 343 348 348 321 323 344 354 352 349 347 346 345
313 314 316 322 325 329 335 342 342 341 345 349 353 312 314 321 354 351 350 348 345 341
310 311 313 317 323 329 334 340 342 344 350 353 350 310 311 318 353 350 349 347 343 343
309 308 310 315 321 330 336 340 343 348 351 353 337 308 311 327 349 345 344 341 341 340
308 308 312 317 323 331 337 340 345 348 353 337 340 305 310 328 341 340 337 341 336 309
308 310 316 321 327 333 339 343 347 348 350 345 338 324 309 306 342 337 335 334 336 332

GFSNIL_sfc_thetae_084.txt.gz
Theta_e
330 328 327 328 329 329 327 328 336 340 338 349 350 353 352 352 351 349 349 349 351 349
330 331 327 328 331 331 333 332 331 332 344 343 347 341 334 333 344 348 350 352 350 351
325 329 328 329 328 329 330 332 332 332 336 338 353 345 337 338 348 349 349 352 351 349
323 323 325 326 327 330 331 331 331 331 330 334 347 352 354 351 350 349 350 351 348 348
326 325 325 325 327 330 331 333 332 331 331 330 337 348 352 351 352 350 349 348 348 348
322 322 322 325 326 327 328 330 333 332 332 332 333 334 349 352 351 349 349 349 349 348
322 321 319 323 326 326 327 326 328 333 334 334 336 335 344 351 350 349 348 350 350 347
320 320 319 319 320 323 324 325 326 329 335 336 336 337 344 349 349 348 347 349 348 346
316 315 316 318 317 318 318 324 326 327 332 333 337 320 318 341 349 347 346 347 347 341
315 313 314 314 314 315 316 319 324 326 329 335 338 317 311 321 348 346 346 345 342 337
313 311 311 312 312 313 313 314 316 324 328 334 337 315 307 316 346 345 345 345 344 339
313 310 309 310 310 312 312 311 313 319 327 333 336 307 307 322 344 343 343 344 342 340
312 311 310 310 310 310 310 311 312 315 326 328 337 304 306 329 343 340 340 339 334 317
311 311 310 309 310 309 309 310 313 317 328 334 337 320 306 318 341 340 336 335 331 325

GFSNIL_sfc_thetae_087.txt.gz
Theta_e
321 321 320 322 324 325 326 326 325 331 335 337 346 346 345 346 344 346 346 340 340 340
319 319 320 320 320 324 327 329 326 327 328 331 336 343 347 346 346 345 343 344 343 338
318 321 322 321 321 320 321 325 327 327 327 328 331 338 340 342 336 340 343 344 333 332
314 315 315 318 321 323 324 325 326 327 327 327 325 326 338 340 336 338 342 344 338 334
315 316 315 316 317 319 322 326 327 329 328 328 328 326 328 335 346 344 344 344 344 343
312 310 310 312 315 317 318 320 323 324 325 327 329 328 326 328 335 346 343 344 346 345
311 311 312 314 314 315 318 319 319 321 323 324 325 330 329 329 326 335 347 345 346 344
312 312 311 311 312 313 315 316 316 318 321 322 323 326 331 329 330 329 342 345 346 345
311 312 311 312 312 313 313 311 312 313 314 319 323 314 312 319 330 335 345 342 344 344
311 311 309 310 311 309 308 309 310 311 313 315 319 310 309 312 323 330 341 342 342 336
312 311 310 309 308 306 306 307 308 309 310 311 313 308 307 309 322 330 340 341 339 336
311 311 310 307 306 306 306 306 306 308 309 309 310 304 305 310 323 330 338 340 338 333
311 311 311 310 308 307 306 306 307 307 308 307 308 304 303 309 323 330 337 336 335 317
307 310 311 311 310 307 305 306 305 306 307 308 308 309 303 306 320 332 336 333 330 329

GFSNIL_sfc_thetae_090.txt.gz
Theta_e
315 316 317 318 319 320 321 323 323 323 329 333 336 340 342 342 339 339 340 341 342 341
318 317 316 316 317 318 319 324 326 326 327 331 333 334 339 342 341 342 341 343 343 340
318 316 316 315 315 316 318 319 321 323 325 327 329 331 333 335 341 341 343 343 343 341
315 316 316 317 317 318 318 319 321 323 324 325 325 324 325 325 332 334 338 342 341 340
312 311 311 311 313 316 317 319 321 324 325 326 327 326 325 324 327 334 333 333 336 337
313 312 312 312 312 312 315 318 319 322 324 322 322 322 324 327 327 326 329 338 338 338
312 313 313 312 310 312 316 316 316 317 319 320 321 322 322 323 324 328 326 331 339 338
312 311 312 311 311 313 312 313 315 317 318 317 318 320 319 319 321 325 328 327 335 340
307 309 310 310 310 309 309 310 312 312 312 311 314 308 308 311 319 322 322 325 332 342
309 310 310 310 309 308 308 309 309 309 309 308 310 306 304 306 314 319 321 323 327 337
309 309 310 310 309 310 310 309 309 309 308 309 309 303 302 303 310 313 320 323 326 331
309 308 309 309 308 308 308 308 308 308 307 306 306 301 300 302 306 309 313 322 328 334
308 309 308 308 308 309 308 307 307 307 307 305 306 300 299 300 305 306 309 316 326 313
307 307 307 307 307 309 308 307 306 305 306 306 305 305 298 298 305 307 310 317 326 331

GFSNIL_sfc_thetae_093.txt.gz
Theta_e
311 311 312 313 314 316 317 318 321 320 321 323 329 334 337 335 336 336 335 335 337 338
312 312 313 314 314 316 316 319 319 321 322 324 327 330 332 334 334 337 337 337 337 337
314 315 315 314 314 314 315 316 318 319 320 321 323 325 326 327 331 332 332 336 337 338
314 316 315 313 314 313 314 315 316 318 319 320 321 321 321 323 324 326 328 330 332 335
314 315 315 315 314 314 314 315 317 318 319 321 322 322 322 322 324 326 326 331 333 332
313 312 312 314 315 314 315 315 315 317 319 321 322 323 322 323 324 325 326 326 328 332
311 312 312 312 312 311 313 314 314 315 318 320 319 318 319 319 319 319 322 327 327 328
310 311 313 312 312 312 311 313 314 315 316 317 318 319 317 317 315 315 319 324 326 327
308 308 309 310 310 310 310 312 313 314 314 314 316 308 307 310 311 314 316 319 322 325
307 307 307 309 308 308 308 309 309 310 311 311 310 303 303 305 310 310 311 315 319 323
306 307 308 307 308 308 308 307 307 308 309 309 309 303 301 303 307 307 308 312 318 322
306 306 306 306 307 308 308 308 308 308 308 307 308 302 301 302 305 306 306 310 312 315
305 305 305 305 306 307 308 308 309 309 309 307 308 300 299 301 306 303 304 305 309 307
302 302 303 303 304 305 307 308 307 307 308 308 306 304 298 298 305 305 304 305 307 311

GFSNIL_sfc_thetae_096.txt.gz
Theta_e
315 314 313 314 314 315 316 318 321 322 323 325 329 332 337 337 334 336 334 335 337 336
311 311 311 313 314 315 317 319 320 322 322 325 327 330 331 333 335 338 336 335 335 334
312 312 312 313 314 316 317 317 320 321 323 323 325 326 327 327 330 333 335 336 334 335
313 313 314 314 315 316 316 317 318 319 320 321 322 324 324 324 326 326 327 330 331 332
313 314 314 315 315 316 316 316 317 319 320 321 322 323 322 323 327 326 326 327 329 332
311 312 313 315 316 315 316 316 316 318 319 320 322 323 324 325 325 325 325 327 327 328
309 311 313 315 316 316 316 316 316 317 318 320 321 323 324 323 322 323 324 325 326 328
308 309 312 313 314 315 315 316 316 316 316 319 320 320 321 321 321 321 320 321 325 328
308 309 309 311 312 312 312 313 314 314 315 316 317 310 309 317 319 319 318 317 320 324
307 308 308 310 311 311 311 312 312 313 314 315 316 306 305 307 315 314 315 316 317 317
305 306 307 308 308 309 310 310 310 312 313 314 314 304 302 303 313 313 314 314 314 316
303 304 306 306 307 308 308 308 309 310 310 311 312 302 301 303 310 311 311 313 314 314
303 304 304 306 306 307 308 309 309 309 310 308 310 301 299 303 310 309 309 311 311 304
301 302 303 304 305 306 306 308 308 309 310 310 308 309 298 298 311 310 308 309 309 311

GFSNIL_sfc_thetae_099.txt.gz
Theta_e
338 338 338 336 334 332 331 333 337 337 338 338 339 342 345 343 341 344 341 342 341 338
333 333 331 333 332 330 331 328 331 332 333 334 334 336 338 337 341 343 344 343 343 339
327 327 327 327 326 327 327 328 329 330 331 332 333 335 338 336 338 339 339 340 343 341
320 320 321 323 325 327 329 329 328 328 328 329 330 332 333 333 333 334 335 336 336 336
321 321 322 322 323 326 328 329 327 326 326 327 327 329 330 329 328 330 331 334 334 333
320 321 322 324 325 326 325 328 327 326 325 325 325 326 328 327 326 327 328 328 328 329
317 318 317 320 322 325 324 325 326 326 325 324 324 324 325 326 326 327 326 328 328 327
315 316 317 316 320 323 324 324 325 325 325 324 324 323 325 326 326 327 326 327 326 326
310 313 314 317 318 320 320 322 323 323 324 326 323 311 309 320 326 327 326 324 323 323
308 309 311 314 315 318 319 322 321 322 323 326 327 306 305 309 325 326 326 325 322 321
304 306 308 310 312 316 318 320 320 320 321 323 325 305 302 304 326 327 326 324 322 322
303 304 306 307 311 314 315 316 318 319 320 321 323 304 301 306 322 325 323 322 322 321
303 303 304 306 308 312 313 314 314 315 319 315 320 304 300 305 320 322 319 322 321 306
303 303 305 306 307 308 310 312 314 314 317 318 317 318 299 299 319 318 318 317 317 318

GFSNIL_sfc_thetae_102.txt.gz
Theta_e
334 335 341 348 344 344 344 346 354 353 353 353 351 351 352 348 348 351 346 347 347 339
332 334 338 348 349 346 350 342 345 346 346 346 345 345 348 345 346 347 348 349 349 342
332 334 339 342 343 343 341 340 330 337 340 339 339 340 342 340 341 342 342 341 346 348
330 330 334 336 338 335 334 331 329 329 328 329 330 333 336 337 334 335 338 340 339 340
326 326 326 327 329 331 332 331 329 328 328 327 327 330 331 331 329 330 332 334 336 335
323 326 327 328 329 328 329 331 329 328 326 326 326 327 329 327 326 327 329 330 331 332
316 319 323 327 327 328 327 326 328 328 326 325 326 326 326 326 327 326 326 328 328 328
315 317 318 321 324 325 323 323 324 326 327 326 325 323 325 326 327 327 327 327 326 329
313 314 317 320 320 322 320 322 322 323 325 328 325 311 310 321 327 327 327 327 327 327
310 311 313 316 318 320 322 323 323 323 324 329 334 306 305 309 330 328 328 328 328 326
309 309 310 312 315 318 320 322 323 324 326 327 329 307 302 305 329 332 332 330 329 329
308 308 308 309 312 315 316 319 321 322 324 326 326 305 302 306 325 327 329 327 329 328
306 307 307 309 310 312 314 315 316 318 323 317 325 307 300 307 323 325 324 330 330 309
306 307 308 308 310 310 311 313 315 316 321 322 321 322 300 299 323 321 322 322 325 326

GFSNIL_sfc_thetae_105.txt.gz
Theta_e
337 333 334 340 340 342 338 342 341 352 349 348 354 356 357 352 351 355 352 353 353 343
335 337 336 342 344 342 348 346 352 341 340 342 344 353 355 349 350 352 352 354 353 347
331 334 336 341 342 344 349 351 351 342 336 334 343 345 350 349 350 350 344 343 349 347
328 330 333 336 338 343 347 347 342 341 341 340 341 339 340 340 339 338 344 346 341 342
326 329 329 331 334 338 339 340 337 332 331 327 326 328 327 329 330 331 334 335 339 338
321 324 329 330 330 331 333 333 331 328 326 325 324 325 328 328 327 330 331 332 333 336
319 320 322 324 324 324 328 329 330 327 324 323 323 324 325 326 326 327 326 332 333 332
317 319 319 321 319 319 318 326 326 327 326 326 324 323 326 326 326 329 328 331 327 333
313 314 316 318 322 318 316 321 324 325 323 327 324 310 310 324 330 330 330 329 329 329
311 311 313 316 317 317 316 317 321 325 326 327 330 309 305 308 332 330 330 333 332 329
309 310 311 313 315 320 323 321 320 319 322 327 328 307 303 304 326 332 334 334 334 333
307 308 310 311 316 318 319 322 325 325 327 328 327 306 302 306 321 327 333 333 335 333
306 307 309 312 315 316 317 317 318 321 326 321 328 310 301 307 325 327 326 333 334 311
306 305 307 309 313 315 314 314 318 319 323 327 326 327 302 300 325 325 326 325 327 330

GFSNIL_sfc_thetae_108.txt.gz
Theta_e
342 335 335 337 336 335 335 335 341 341 344 332 329 332 334 333 338 340 344 343 341 340
337 336 335 338 337 334 336 337 341 340 339 330 325 322 320 327 324 323 332 340 343 343
327 328 335 336 336 337 339 338 337 341 342 328 325 324 327 326 327 323 322 337 340 341
324 325 327 330 333 336 337 339 339 342 341 334 331 330 330 326 326 324 316 328 336 339
325 323 324 325 329 333 333 335 337 339 337 333 331 329 333 321 317 320 316 324 332 335
323 323 322 323 325 329 328 326 330 334 333 333 328 328 327 328 324 326 327 329 333 333
316 320 321 321 321 325 326 325 323 321 320 326 328 327 326 324 323 325 326 329 330 331
315 316 317 318 320 321 323 322 322 319 317 318 323 324 325 326 327 328 327 329 330 330
313 313 313 314 315 318 322 322 321 318 317 313 317 311 312 324 328 328 327 326 327 329
310 309 310 312 313 313 317 322 319 317 317 313 313 311 309 309 330 329 329 328 329 323
307 307 307 307 310 313 315 319 319 316 314 314 317 309 306 308 322 327 330 330 330 326
305 304 305 305 308 308 311 314 319 318 315 314 316 308 303 306 320 317 318 329 330 329
303 304 303 305 306 307 308 311 315 315 319 317 319 309 304 305 322 320 321 323 324 312
303 303 304 304 307 307 306 307 310 312 313 318 319 319 302 300 321 322 322 319 319 326

GFSNIL_sfc_thetae_111.txt.gz
Theta_e
321 324 324 326 326 327 328 329 331 332 334 336 334 333 332 323 322 323 326 327 328 324
317 317 319 324 328 330 329 332 332 330 328 332 333 330 331 325 323 325 323 321 321 320
313 315 317 319 319 322 327 330 331 332 332 330 326 327 326 323 322 321 320 321 320 320
312 314 314 316 318 321 323 324 326 330 332 333 324 321 318 317 320 321 320 319 316 317
314 313 313 313 316 318 320 322 320 320 322 324 327 326 323 320 323 324 319 317 317 316
307 310 311 312 314 314 316 318 320 317 318 318 321 328 327 326 324 319 318 316 318 318
305 307 309 310 311 312 314 317 317 318 317 319 317 324 327 325 319 319 317 317 318 321
305 307 307 308 309 311 312 313 315 317 317 317 317 318 313 315 320 321 318 318 322 323
306 307 306 306 306 306 308 310 313 316 315 314 317 308 305 312 314 318 321 322 324 324
304 304 303 303 303 302 302 304 308 313 313 311 310 306 305 306 315 315 319 319 318 320
303 303 303 302 301 301 302 303 304 306 312 311 312 305 303 305 314 314 315 318 319 315
303 302 302 301 300 300 301 301 304 306 309 310 310 303 302 306 312 313 315 321 322 316
303 303 302 302 301 301 301 301 303 303 306 310 311 304 300 304 313 314 314 314 320 308
302 303 302 302 301 301 300 301 302 302 305 306 311 314 302 300 314 317 312 313 316 313

GFSNIL_sfc_thetae_114.txt.gz
Theta_e
317 317 316 317 318 320 322 325 325 326 329 331 334 335 335 331 330 331 329 326 327 324
313 311 313 314 316 317 318 324 326 327 327 328 330 331 333 331 327 328 324 325 326 323
311 310 311 312 313 314 316 319 320 322 324 326 329 329 329 329 329 320 320 322 322 320
311 310 311 310 311 313 316 316 318 320 320 320 321 325 321 323 325 319 317 319 319 318
309 310 310 310 311 312 313 314 316 318 318 319 320 319 321 320 321 320 318 319 318 318
304 306 310 308 309 311 311 310 312 317 317 317 319 318 323 322 320 319 321 319 317 317
302 303 303 306 307 308 308 309 311 313 316 317 317 318 320 324 324 321 320 321 319 319
302 303 304 304 305 306 307 309 309 309 313 315 316 317 314 316 319 319 317 317 318 317
303 303 303 303 303 303 303 304 306 306 308 310 315 310 308 310 313 316 316 317 319 318
302 302 302 303 303 301 300 301 300 302 305 306 309 305 303 305 311 314 315 312 315 319
301 301 302 301 302 301 299 298 298 299 301 302 305 304 302 302 308 313 311 314 314 316
299 298 298 299 301 301 298 297 297 299 300 301 304 303 302 302 308 311 311 316 316 317
297 297 299 300 302 302 298 299 299 300 301 302 302 301 300 302 310 308 311 313 315 308
297 295 295 296 298 302 301 300 299 298 299 301 302 303 299 298 312 310 312 312 314 316

GFSNIL_sfc_thetae_117.txt.gz
Theta_e
314 314 313 315 315 316 316 319 321 323 324 325 328 329 328 329 329 327 328 329 330 327
312 311 311 312 313 314 316 320 320 320 321 322 324 326 327 328 327 329 330 330 329 326
310 310 310 310 311 312 313 317 316 317 316 317 319 321 322 323 326 329 328 327 326 324
308 309 309 308 309 310 312 314 315 316 316 316 315 315 315 317 320 322 323 321 321 322
306 306 307 308 308 309 311 312 314 315 315 316 316 314 314 316 318 319 319 320 319 320
301 301 302 305 306 306 308 310 310 312 314 315 315 314 314 316 318 319 320 319 320 319
300 301 301 302 303 304 306 306 306 308 313 314 314 314 315 316 316 317 321 320 320 319
300 301 301 302 303 304 305 306 307 307 308 311 313 315 313 313 313 315 317 319 321 321
300 301 301 301 301 301 302 303 303 304 306 305 310 308 307 310 310 312 313 315 318 318
301 301 300 301 301 300 300 300 300 301 302 303 304 303 303 305 308 310 312 313 314 314
299 298 299 299 299 299 300 300 301 301 301 302 302 300 299 302 304 306 309 311 312 311
297 296 296 296 295 296 296 299 300 301 300 299 300 299 298 299 303 305 307 310 312 312
295 296 295 294 297 296 296 299 302 301 300 300 299 298 298 299 303 305 307 309 311 307
294 293 293 293 294 293 294 295 296 300 301 301 301 299 297 297 301 305 308 309 310 314